• Join FlightAware (Why Join?)
  • Login
  • US Flag GB Flag 
15:53 EST


 

Airport Tracker/Info


-or-


 

Live Flight TrackerFlight Track Log ✈ EJA122 ✈ 20-Apr-2013 ✈ KJZI - KHVN

Flight Track Log - Related Links

Times and Time Zones

All times are in EDT time to prevent confusion due to time zone crossing. See the EJA122 flight status page for this flight to view local times or setup timezone preferences in your user account.

Time Position Orientation Groundspeed Altitude Reporting Facility
EDT Latitude Longitude Course Direction KTS MPH feet Rate Location/Type
14:07 32.7019 -79.9350 40° Northeast 207 238 5,800  Level Jacksonville Center
14:08 32.7547 -79.8792 42° Northeast 217 250 8,500 2,250 Climbing Jacksonville Center
14:09 32.8181 -79.8225 37° Northeast 252 290 10,300 1,650 Climbing Jacksonville Center
14:10 33.3805 -79.5514 38° Northeast  Level FlightAware Approximate
14:10 32.8958 -79.7581 35° Northeast 299 344 11,800  Level Jacksonville Center
14:11 33.4876 -79.4457 40° Northeast  Level FlightAware Approximate
14:11 32.9756 -79.6883 36° Northeast 336 387 13,300  Level Jacksonville Center
14:12 33.5943 -79.3392 40° Northeast  Level FlightAware Approximate
14:12 33.0572 -79.6186 36° Northeast 355 409 14,700  Level Jacksonville Center
14:13 33.1431 -79.5461 35° Northeast 362 417 16,100 1,400 Climbing Jacksonville Center
14:14 33.2286 -79.4708 36° Northeast 373 429 17,500 1,350 Climbing Jacksonville Center
14:15 33.3142 -79.3956 36° Northeast 373 429 18,800 1,200 Climbing Jacksonville Center
14:16 33.4019 -79.3222 35° Northeast 373 429 19,900 1,050 Climbing Jacksonville Center
14:17 33.4917 -79.2439 36° Northeast 385 443 20,900 950 Climbing Jacksonville Center
14:18 33.5853 -79.1653 35° Northeast 395 455 21,800 850 Climbing Jacksonville Center
14:19 33.6644 -79.0922 38° Northeast 395 455 22,600 900 Climbing Jacksonville Center
14:20 33.7581 -79.0108 36° Northeast 395 455 23,600 1,000 Climbing Jacksonville Center
14:21 33.8511 -78.9192 39° Northeast 411 473 24,600 995 Climbing Jacksonville Center
14:23 34.0356 -78.6992 45° Northeast 447 514 26,700 995 Climbing Washington Center
14:24 34.1278 -78.5997 42° Northeast 447 514 27,700 1,000 Climbing Washington Center
14:25 34.2219 -78.5028 40° Northeast 442 509 28,700 950 Climbing Washington Center
14:26 34.3267 -78.3958 40° Northeast 442 509 29,600 900 Climbing Washington Center
14:27 34.4228 -78.2986 40° Northeast 442 509 30,500 950 Climbing Washington Center
14:28 34.5269 -78.2186 32° Northeast 442 509 31,500 950 Climbing Washington Center
14:29 34.6350 -78.1364 32° Northeast 442 509 32,400 950 Climbing Washington Center
14:30 34.7431 -78.0589 31° Northeast 447 514 33,400 1,000 Climbing Washington Center
14:31 34.8450 -77.9783 33° Northeast 441 507 34,400 800 Climbing Washington Center
14:32 34.9508 -77.9006 31° Northeast 441 507 35,000 300 Climbing Washington Center
14:33 35.0631 -77.8150 32° Northeast 448 516 35,000  Level Washington Center
14:34 35.1792 -77.7292 31° Northeast 471 542 35,000  Level Washington Center
14:35 35.2978 -77.6381 32° Northeast 484 557 35,000  Level Washington Center
14:36 35.4097 -77.5544 31° Northeast 509 586 35,000  Level Washington Center
14:37 35.5364 -77.4631 30° Northeast 515 593 35,000  Level Washington Center
14:38 35.6608 -77.3689 32° Northeast 521 600 35,000  Level Washington Center
14:39 35.7833 -77.2717 33° Northeast 521 600 35,000  Level Washington Center
14:40 35.9119 -77.1769 31° Northeast 521 600 35,000  Level Washington Center
14:41 36.0342 -77.0767 34° Northeast 527 606 35,000  Level Washington Center
14:42 36.1625 -76.9814 31° Northeast 532 612 35,000  Level Washington Center
14:43 36.3014 -76.8756 32° Northeast 527 606 35,000  Level Washington Center
14:44 36.4278 -76.7742 33° Northeast 532 612 35,000  Level Washington Center
14:45 36.5558 -76.6728 32° Northeast 532 612 35,000  Level Washington Center
14:46 36.6861 -76.5736 31° Northeast 532 612 35,000  Level Washington Center
14:47 36.7994 -76.4789 34° Northeast 539 620 35,000  Level Washington Center
14:48 36.9294 -76.3767 32° Northeast 544 626 35,000  Level Washington Center
14:49 37.0553 -76.2764 32° Northeast 544 626 35,000  Level Washington Center
14:50 37.1853 -76.1706 33° Northeast 544 626 35,000  Level Washington Center
14:51 37.3317 -76.0619 31° Northeast 544 626 35,000  Level Washington Center
14:52 37.4594 -75.9581 33° Northeast 544 626 35,000  Level Washington Center
14:53 37.5889 -75.8539 33° Northeast 544 626 35,000  Level Washington Center
14:54 37.7183 -75.7467 33° Northeast 544 626 35,000  Level Washington Center
14:55 37.8500 -75.6392 33° Northeast 544 626 35,000 -50 Level Washington Center
14:56 37.9750 -75.5364 33° Northeast 544 626 34,900  Descending Washington Center
14:57 38.1064 -75.4361 31° Northeast 544 626 35,000 50 Climbing Washington Center
14:58 38.2481 -75.3539 24° Northeast 544 626 35,000  Level Washington Center
14:59 38.3686 -75.2686 29° Northeast 544 626 35,000 -50 Level Washington Center
15:00 38.5081 -75.1778 27° Northeast 544 626 34,900  Descending Washington Center
15:01 38.6475 -75.0919 26° Northeast 551 634 35,000 50 Climbing Washington Center
15:02 38.7783 -74.9872 32° Northeast 551 634 35,000  Level Washington Center
15:03 38.8983 -74.8528 41° Northeast 558 642 35,000 -100 Level Washington Center
15:04 39.0164 -74.7181 42° Northeast 558 642 34,800 -900 Descending Washington Center
15:05 39.1361 -74.5856 41° Northeast 564 649 33,200 -2,350 Descending Washington Center
15:06 39.2497 -74.4553 42° Northeast 559 643 30,100 -3,600 Descending Washington Center
15:07 39.3672 -74.3217 41° Northeast 554 638 26,000 -2,744 Descending Washington Center
15:09 39.6044 -74.0094 45° Northeast 527 606 21,000 -1,508 Descending New York Center
15:10 39.6631 -73.8422 65° Northeast 498 573 21,000  Level New York Center
15:11 39.7111 -73.6717 70° East 498 573 21,000  Level New York Center
15:12 39.7592 -73.4956 70° East 504 580 21,000 -454 Level New York Center
15:13 39.8281 -73.3117 64° Northeast 504 580 20,100 -1,429 Descending New York Center
15:15 40.0247 -73.1311 35° Northeast 457 526 17,000 -2,118 Descending Boston Center
15:16 40.1336 -73.0481 30° Northeast 452 520 14,100 -2,750 Descending Boston Center
15:17 40.2381 -72.9728 29° Northeast 442 509 11,500 -1,550 Descending Boston Center
15:18 40.3342 -72.9028 29° Northeast 418 481 11,000 -250 Descending Boston Center
15:19 40.4303 -72.8300 30° Northeast 399 459 11,000 -615 Level Boston Center
15:21 40.5667 -72.7167 32° Northeast 330 380 9,400 -1,351 Descending New York TRACON
15:21 40.6333 -72.7000 11° North 285 328 7,600 -1,983 Descending New York TRACON
15:22 40.7167 -72.7000 360° North 260 299 5,600 -1,680 Descending New York TRACON
15:24 40.7833 -72.7000 360° North 247 284 4,100 -714 Descending New York TRACON
15:25 40.8500 -72.7000 360° North 231 266 4,100  Level New York TRACON
15:25 40.9167 -72.7000 360° North 233 268 4,100  Level New York TRACON
15:26 40.9667 -72.7167 346° North 225 259 4,100 -524 Level New York TRACON
15:28 41.0333 -72.7667 331° Northwest 221 254 3,000 -952 Descending New York TRACON
15:29 41.0833 -72.8167 323° Northwest 219 252 2,100 -474 Descending New York TRACON
15:29 41.1167 -72.8500 323° Northwest 210 242 2,100  Level New York TRACON